CZ-6A DEB, 56680

Orbit data source: Space-Track

CZ-6A DEB, 56680 is space debris in SSO originally from a launch on Fri, 11 Nov 2022 UTC launched from the Taiyaun Space Center, China (TSC). Debris objects in space refer to the collection of defunct objects orbiting the Earth. Examples of debris include non-operational satellites, rocket bodies, and fragments generated from explosions, collisions, or faulty payload assembly.

Loading next visibility...
Identifier
56680, 2022-151AHG
Orbit
SSO
Country
Flag of CNCN / PRC
Related business
Manufacturer
SAST
Mission
Spacecraft
Bus & Motor
Unknown
Mass
Unknown
Launch date (UTC)
2022-11-11 (4 years ago)
Launch vehicle
Unknown
Launch site
Taiyaun Space Center, China (TSC)
Object type
Payload
Rocket body
Debris
Shape & HBR
Unknown shape, 0.1 m
Radar Cross Section
Medium (>0.1 m² and <1 m²)

Expand to show TLE details & history
Last TLE update: 2 days ago

TLE from 2 days ago
0 CZ-6A DEB
1 56680U 22151AHG 26171.44180221  .00004461  00000-0  82322-3 0  9990
2 56680  98.6135 233.0137 0078947 283.0269  76.2127 14.64022653171415
Epoch: 2026-06-20T10:36Z
TLE epoch observation values (Epoch: 2026-06-20T10:36:11.710Z)
Latitude
-0.00006°
Longitude
165.30854°
Altitude
670.326 km
Speed
7.529 km/s
True Right ascension
15h 32m 03s
True Declination
0° 00' 00"
Sunlit
Object was in full shadow at epoch
Visualization orbit readout
Latitude
Unknown
Longitude
Unknown
Altitude
Unknown
Speed
Unknown
Apparent Right ascension
Unknown
Apparent Declination
Unknown
Sunlit
N/A
Visualization observer readout
Local Sidereal Time
21:52:16
Azimuth
Unknown
Elevation
Unknown
Doppler factor
Unknown
Orbital elements
Apogee altitude
733.011 km
Perigee altitude
621.609 km
Semi-major axis
7,055.447 km
Eccentricity
0.00789
Inclination
98.6135°
RAAN
233.0137°
Arg. of periapsis
283.0269°
True anomaly
77.09334°
Mean anomaly
76.2127°
Eccentric anomaly
76.65282°
Mean motion
3.66232 °/min
Orbital period
98.3 mins
BSTAR
0.00082322
Loading maneuver chart data...
Computing Atmospheric mass density...
Loading historical data...
Loading historical data...
Loading historical data...
Loading historical data...
Loading historical data...
Loading historical data...
Loading historical data...

Documentation

Showing up to 5 results
|